TimeCDT,TemperatureF,Dew PointF,Humidity,Sea Level PressureIn,VisibilityMPH,Wind Direction,Wind SpeedMPH,Gust SpeedMPH,PrecipitationIn,Events,Conditions,WindDirDegrees,DateUTC
12:02 AM,24.8,21.2,86,29.47,3.0,SE,15.0,-,0.00,Snow,Light Snow,140,2013-03-18 05:02:00
12:13 AM,24.8,21.2,86,29.47,3.0,SSE,12.7,-,0.00,Snow,Light Snow,150,2013-03-18 05:13:00
12:41 AM,24.8,23.0,93,29.45,4.0,SSE,10.4,-,0.00,,Overcast,150,2013-03-18 05:41:00
12:52 AM,24.8,23.0,93,29.45,1.8,SSE,10.4,-,0.00,Snow,Light Snow,150,2013-03-18 05:52:00
12:56 AM,25.0,23.0,92,29.53,1.5,SSE,10.4,-,0.00,Snow,Light Snow,150,2013-03-18 05:56:00
1:12 AM,24.8,23.0,93,29.45,1.0,South,9.2,-,0.01,Snow,Light Snow,170,2013-03-18 06:12:00
1:56 AM,26.1,23.0,88,29.52,1.0,WSW,6.9,-,0.03,Snow,Light Snow,250,2013-03-18 06:56:00
2:10 AM,26.6,23.0,86,29.45,3.0,WNW,20.7,25.3,0.00,Snow,Light Snow,290,2013-03-18 07:10:00
2:19 AM,24.8,21.2,86,29.45,3.0,WNW,25.3,33.4,0.00,Snow,Light Snow,290,2013-03-18 07:19:00
2:22 AM,24.8,21.2,86,29.45,2.5,WNW,25.3,-,0.00,Snow,Light Snow,290,2013-03-18 07:22:00
2:31 AM,24.8,21.2,86,29.46,2.0,WNW,21.9,32.2,0.00,Snow,Light Snow,300,2013-03-18 07:31:00
2:38 AM,24.8,21.2,86,29.46,1.8,WNW,21.9,-,0.00,Snow,Light Snow,300,2013-03-18 07:38:00
2:45 AM,24.8,19.4,80,29.47,2.5,WNW,23.0,31.1,0.00,Snow,Light Snow,300,2013-03-18 07:45:00
2:56 AM,24.1,19.9,84,29.55,2.0,WNW,23.0,-,0.00,Snow,Light Snow,290,2013-03-18 07:56:00
3:04 AM,23.0,19.4,86,29.48,1.8,WNW,26.5,33.4,0.00,Snow,Light Snow,300,2013-03-18 08:04:00
3:13 AM,23.0,19.4,86,29.48,1.0,WNW,33.4,39.1,0.00,Snow,Light Snow,300,2013-03-18 08:13:00
3:25 AM,19.4,15.8,86,29.49,0.8,NW,31.1,41.4,0.00,Snow,Light Snow,310,2013-03-18 08:25:00
3:36 AM,17.6,14.0,86,29.49,1.0,NW,33.4,41.4,0.00,Snow,Light Snow,310,2013-03-18 08:36:00
3:47 AM,17.6,12.2,79,29.50,0.8,WNW,28.8,42.6,0.00,Snow,Light Snow,300,2013-03-18 08:47:00
3:56 AM,16.0,12.0,84,29.59,1.0,NW,27.6,42.6,0.00,Snow,Light Snow,310,2013-03-18 08:56:00
4:07 AM,15.8,10.4,79,29.50,0.8,NW,27.6,42.6,0.00,,Overcast,310,2013-03-18 09:07:00
4:14 AM,15.8,10.4,79,29.50,0.8,NW,31.1,43.7,0.00,,Overcast,310,2013-03-18 09:14:00
4:26 AM,15.8,10.4,79,29.50,1.0,WNW,32.2,40.3,0.00,Snow,Blowing Snow,300,2013-03-18 09:26:00
4:36 AM,14.0,10.4,86,29.51,1.0,WNW,31.1,40.3,0.00,Snow,Blowing Snow,300,2013-03-18 09:36:00
4:43 AM,14.0,8.6,79,29.51,1.0,NW,33.4,40.3,0.00,,Overcast,310,2013-03-18 09:43:00
4:52 AM,12.2,8.6,85,29.52,1.0,WNW,31.1,41.4,0.00,Snow,Blowing Snow,300,2013-03-18 09:52:00
4:56 AM,12.9,9.0,84,29.61,1.0,WNW,28.8,41.4,0.00,Snow,Blowing Snow,300,2013-03-18 09:56:00
5:28 AM,12.2,8.6,85,29.53,0.8,WNW,28.8,41.4,0.00,Snow,Light Snow,300,2013-03-18 10:28:00
5:56 AM,10.0,6.1,84,29.65,0.8,WNW,32.2,43.7,0.00,Snow,Light Snow,300,2013-03-18 10:56:00
6:16 AM,8.6,5.0,85,29.57,1.2,WNW,31.1,38.0,0.00,Snow,Blowing Snow,300,2013-03-18 11:16:00
6:56 AM,9.0,5.0,84,29.67,1.0,NW,29.9,41.4,0.00,Snow,Light Snow,310,2013-03-18 11:56:00
7:06 AM,8.6,5.0,85,29.59,0.8,NW,29.9,41.4,0.00,Snow,Light Snow,310,2013-03-18 12:06:00
7:27 AM,8.6,3.2,79,29.59,0.2,NW,35.7,51.8,0.01,Snow,Heavy Snow,310,2013-03-18 12:27:00
7:43 AM,8.6,3.2,79,29.60,0.5,NW,34.5,46.0,0.01,Fog-Snow,Light Snow,310,2013-03-18 12:43:00
7:52 AM,8.6,3.2,79,29.60,0.2,NW,39.1,44.9,0.01,Fog-Snow,Light Snow,310,2013-03-18 12:52:00
7:56 AM,8.1,3.9,83,29.69,0.2,NW,36.8,43.7,0.01,Fog-Snow,Light Snow,310,2013-03-18 12:56:00
8:56 AM,8.1,3.9,83,29.72,0.2,NW,35.7,42.6,0.00,Fog-Snow,Light Snow,310,2013-03-18 13:56:00
9:19 AM,8.6,3.2,79,29.64,0.2,NW,38.0,44.9,0.00,Snow,Heavy Snow,310,2013-03-18 14:19:00
9:43 AM,8.6,3.2,79,29.67,0.8,NW,28.8,41.4,0.00,Snow,Blowing Snow,310,2013-03-18 14:43:00
9:56 AM,8.1,3.0,80,29.76,0.2,NW,29.9,41.4,0.00,,Unknown,320,2013-03-18 14:56:00
10:03 AM,8.6,1.4,73,29.68,0.2,NW,35.7,46.0,0.00,,Unknown,310,2013-03-18 15:03:00
10:29 AM,8.6,3.2,79,29.70,0.5,NW,31.1,40.3,0.01,,Unknown,310,2013-03-18 15:29:00
10:56 AM,8.1,3.0,80,29.80,0.5,NW,34.5,47.2,0.01,,Overcast,310,2013-03-18 15:56:00
11:11 AM,8.6,3.2,79,29.72,0.2,NW,28.8,39.1,0.00,,Unknown,310,2013-03-18 16:11:00
11:21 AM,8.6,3.2,79,29.72,0.5,NW,33.4,44.9,0.00,Snow,Blowing Snow,320,2013-03-18 16:21:00
11:32 AM,8.6,1.4,73,29.72,0.2,NW,36.8,44.9,0.00,,Unknown,320,2013-03-18 16:32:00
11:56 AM,9.0,3.0,77,29.82,0.2,NW,38.0,46.0,0.00,,Overcast,320,2013-03-18 16:56:00
12:13 PM,8.6,3.2,79,29.73,0.5,NW,32.2,42.6,0.00,Snow,Blowing Snow,320,2013-03-18 17:13:00
12:24 PM,10.4,3.2,73,29.74,0.2,NW,32.2,47.2,0.00,,Unknown,320,2013-03-18 17:24:00
12:39 PM,10.4,3.2,73,29.75,0.5,NW,33.4,44.9,0.00,Snow,Blowing Snow,320,2013-03-18 17:39:00
12:49 PM,10.4,3.2,73,29.76,0.2,NW,34.5,43.7,0.00,,Unknown,310,2013-03-18 17:49:00
12:56 PM,10.0,3.0,73,29.85,0.5,NW,35.7,42.6,0.00,,Unknown,320,2013-03-18 17:56:00
1:56 PM,10.9,3.9,73,29.88,0.8,NW,28.8,42.6,0.00,Snow,Blowing Snow,310,2013-03-18 18:56:00
2:56 PM,10.9,5.0,77,29.89,0.8,NW,27.6,36.8,N/A,Snow,Blowing Snow,310,2013-03-18 19:56:00
3:14 PM,10.4,3.2,73,29.82,1.5,NW,29.9,35.7,0.00,Snow,Blowing Snow,320,2013-03-18 20:14:00
3:28 PM,10.4,5.0,79,29.82,0.8,NW,32.2,39.1,0.00,Snow,Blowing Snow,310,2013-03-18 20:28:00
3:33 PM,10.4,3.2,73,29.82,1.0,NW,27.6,-,0.00,Snow,Blowing Snow,320,2013-03-18 20:33:00
3:54 PM,10.4,3.2,73,29.83,0.8,NW,32.2,40.3,0.00,Snow,Blowing Snow,310,2013-03-18 20:54:00
3:56 PM,10.9,3.9,73,29.92,0.8,NW,32.2,40.3,0.00,Snow,Blowing Snow,320,2013-03-18 20:56:00
4:04 PM,10.4,5.0,79,29.83,1.2,NW,27.6,40.3,N/A,Snow,Blowing Snow,310,2013-03-18 21:04:00
4:27 PM,10.4,3.2,73,29.84,1.0,NW,26.5,36.8,N/A,Snow,Blowing Snow,310,2013-03-18 21:27:00
4:56 PM,10.9,3.9,73,29.95,1.2,NW,29.9,38.0,N/A,Snow,Blowing Snow,310,2013-03-18 21:56:00
5:27 PM,10.4,3.2,73,29.86,2.0,NW,27.6,34.5,N/A,Snow,Blowing Snow,310,2013-03-18 22:27:00
5:56 PM,10.9,3.9,73,29.97,5.0,NW,23.0,-,N/A,,Haze,310,2013-03-18 22:56:00
6:38 PM,10.4,3.2,73,29.88,2.5,NW,23.0,32.2,0.00,Snow,Blowing Snow,310,2013-03-18 23:38:00
6:46 PM,10.4,3.2,73,29.89,5.0,NW,21.9,-,0.00,,Haze,310,2013-03-18 23:46:00
6:54 PM,10.4,3.2,73,29.89,9.0,NW,21.9,-,0.00,,Scattered Clouds,320,2013-03-18 23:54:00
7:56 PM,7.0,1.0,77,30.03,10.0,NW,18.4,-,N/A,,Clear,310,2013-03-19 00:56:00
8:56 PM,6.1,-2.0,69,30.04,10.0,NW,15.0,-,N/A,,Clear,310,2013-03-19 01:56:00
9:56 PM,3.9,-4.0,70,30.06,10.0,NW,11.5,-,N/A,,Clear,310,2013-03-19 02:56:00
10:56 PM,3.9,-4.0,70,30.07,10.0,NW,11.5,-,N/A,,Clear,310,2013-03-19 03:56:00
11:56 PM,1.9,-5.1,72,30.10,10.0,WNW,10.4,-,N/A,,Clear,300,2013-03-19 04:56:00